Barfleur — FNIE — position and weather

sailwx.info

Track history (hours):
 
Tides and Currents Weather Stations Pressure Air Temp Water Temp Dewpoint Dewpoint Depression Visibility Wind Speed Wind Dir Waves Ship Positions

Barfleur

Operator: Brittany Ferries

Last reported at 2014-Oct-25 08:33 UTC. Time now 2014-Oct-25 15:28 UTC.
Position N 50°28' W 001°51'.

Length 158 m; draft 5 m.

Type: Passenger vessel. MMSI: 227289000.

Date/timePositionNaut miles runAvg speedWind from/ knotsBaromVisibWave heightAir tempDewpointWater temp
2014-Oct-25 08:33N 50°28' W 001°51'1514.9
2014-Oct-25 07:33N 50°42' W 001°57'1 0.1
2014-Oct-24 20:33N 50°42' W 001°59'1413.4
2014-Oct-24 19:33N 50°30' W 001°52'0 0.0
2014-Oct-24 08:33N 50°30' W 001°52'1413.1
2014-Oct-24 07:31N 50°42' W 001°59'2 0.1
2014-Oct-23 20:33N 50°42' W 001°57'1616.1
2014-Oct-23 19:33N 50°26' W 001°49'9 0.8
2014-Oct-23 08:16N 50°35' W 001°53'8 3.0
2014-Oct-23 05:33N 50°42' W 001°58'5 5.1
2014-Oct-23 04:33N 50°41' W 001°50'1 1.2
2014-Oct-23 03:33N 50°40' W 001°50'1 0.7
2014-Oct-23 02:33N 50°39' W 001°50'3 3.1
2014-Oct-23 01:33N 50°36' W 001°50'3711.0
2014-Oct-22 22:12N 50°00' W 001°37'913.1
2014-Oct-22 21:29N 49°51' W 001°39'1112.0
2014-Oct-22 20:33N 49°40' W 001°37'54 4.4
2014-Oct-22 08:20N 50°33' W 001°52'9 3.3
2014-Oct-22 05:33N 50°42' W 001°57'6 6.3
2014-Oct-22 04:33N 50°41' W 001°47'2 1.6
2014-Oct-22 03:34N 50°40' W 001°49'2 2.1
2014-Oct-22 02:33N 50°38' W 001°50'8 0.4
2014-Oct-21 08:33N 50°30' W 001°52'13 1.1
2014-Oct-20 21:10N 50°42' W 001°59'0 0.4
2014-Oct-20 20:33N 50°42' W 001°59'1313.0
2014-Oct-20 19:33N 50°30' W 001°52'3 0.3
2014-Oct-20 08:33N 50°27' W 001°52'1515.7
2014-Oct-20 07:34N 50°42' W 001°57'2 0.1
2014-Oct-19 21:05N 50°42' W 001°59'0 0.1
2014-Oct-19 20:33N 50°42' W 001°59'1212.2
2014-Oct-19 19:33N 50°31' W 001°52'1 0.1
2014-Oct-19 08:15N 50°30' W 001°52'1116.3
2014-Oct-19 07:34N 50°41' W 001°57'2 0.2
2014-Oct-18 20:34N 50°42' W 001°59'1110.7
2014-Oct-18 19:34N 50°33' W 001°52'1 0.1
2014-Oct-18 08:08N 50°34' W 001°53'814.2
2014-Oct-18 07:33N 50°42' W 001°57'2 0.1
2014-Oct-17 21:07N 50°42' W 001°59'0 0.1
2014-Oct-17 20:33N 50°42' W 001°60'1212.5
2014-Oct-17 19:33N 50°31' W 001°51'3 0.2
2014-Oct-17 08:06N 50°34' W 001°53'815.0
2014-Oct-17 07:33N 50°41' W 001°57'2 0.2
2014-Oct-16 21:33N 50°42' W 001°59'0 0.3
2014-Oct-16 20:33N 50°42' W 001°59'1312.9
2014-Oct-16 19:33N 50°30' W 001°52'3 0.3
2014-Oct-16 08:19N 50°34' W 001°53'1012.5
2014-Oct-16 07:33N 50°42' W 001°59'2 0.9
2014-Oct-16 05:29N 50°41' W 001°57'  
Track history (hours):
 
Tides and Currents Weather Stations Pressure Air Temp Water Temp Dewpoint Dewpoint Depression Visibility Wind Speed Wind Dir Waves Ship Positions

Barfleur

Operator: Brittany Ferries

Last reported at 2014-Oct-25 08:33 UTC. Time now 2014-Oct-25 15:28 UTC.
Position N 50°28' W 001°51'.

Length 158 m; draft 5 m.

Type: Passenger vessel. MMSI: 227289000.

Date/timePositionNaut miles runAvg speedWind from/ knotsBaromVisibWave heightAir tempDewpointWater temp
2014-Oct-25 08:33N 50°28' W 001°51'1514.9
2014-Oct-25 07:33N 50°42' W 001°57'1 0.1
2014-Oct-24 20:33N 50°42' W 001°59'1413.4
2014-Oct-24 19:33N 50°30' W 001°52'0 0.0
2014-Oct-24 08:33N 50°30' W 001°52'1413.1
2014-Oct-24 07:31N 50°42' W 001°59'2 0.1
2014-Oct-23 20:33N 50°42' W 001°57'1616.1
2014-Oct-23 19:33N 50°26' W 001°49'9 0.8
2014-Oct-23 08:16N 50°35' W 001°53'8 3.0
2014-Oct-23 05:33N 50°42' W 001°58'5 5.1
2014-Oct-23 04:33N 50°41' W 001°50'1 1.2
2014-Oct-23 03:33N 50°40' W 001°50'1 0.7
2014-Oct-23 02:33N 50°39' W 001°50'3 3.1
2014-Oct-23 01:33N 50°36' W 001°50'3711.0
2014-Oct-22 22:12N 50°00' W 001°37'913.1
2014-Oct-22 21:29N 49°51' W 001°39'1112.0
2014-Oct-22 20:33N 49°40' W 001°37'54 4.4
2014-Oct-22 08:20N 50°33' W 001°52'9 3.3
2014-Oct-22 05:33N 50°42' W 001°57'6 6.3
2014-Oct-22 04:33N 50°41' W 001°47'2 1.6
2014-Oct-22 03:34N 50°40' W 001°49'2 2.1
2014-Oct-22 02:33N 50°38' W 001°50'8 0.4
2014-Oct-21 08:33N 50°30' W 001°52'13 1.1
2014-Oct-20 21:10N 50°42' W 001°59'0 0.4
2014-Oct-20 20:33N 50°42' W 001°59'1313.0
2014-Oct-20 19:33N 50°30' W 001°52'3 0.3
2014-Oct-20 08:33N 50°27' W 001°52'1515.7
2014-Oct-20 07:34N 50°42' W 001°57'2 0.1
2014-Oct-19 21:05N 50°42' W 001°59'0 0.1
2014-Oct-19 20:33N 50°42' W 001°59'1212.2
2014-Oct-19 19:33N 50°31' W 001°52'1 0.1
2014-Oct-19 08:15N 50°30' W 001°52'1116.3
2014-Oct-19 07:34N 50°41' W 001°57'2 0.2
2014-Oct-18 20:34N 50°42' W 001°59'1110.7
2014-Oct-18 19:34N 50°33' W 001°52'1 0.1
2014-Oct-18 08:08N 50°34' W 001°53'814.2
2014-Oct-18 07:33N 50°42' W 001°57'2 0.1
2014-Oct-17 21:07N 50°42' W 001°59'0 0.1
2014-Oct-17 20:33N 50°42' W 001°60'1212.5
2014-Oct-17 19:33N 50°31' W 001°51'3 0.2
2014-Oct-17 08:06N 50°34' W 001°53'815.0
2014-Oct-17 07:33N 50°41' W 001°57'2 0.2
2014-Oct-16 21:33N 50°42' W 001°59'0 0.3
2014-Oct-16 20:33N 50°42' W 001°59'1312.9
2014-Oct-16 19:33N 50°30' W 001°52'3 0.3
2014-Oct-16 08:19N 50°34' W 001°53'1012.5
2014-Oct-16 07:33N 50°42' W 001°59'2 0.9
2014-Oct-16 05:29N 50°41' W 001°57'  

Dump ship's entire track history